Location: *
(51.0333°S, 178.4667°E)
Time: 07:38:52
(UTC+00:00)

Cosmos 1818 - Pass Details

Date: 15 November 2019
Orbit: 776 x 797 km, 65.0° (Epoch: 07 December)

Event Time Altitude Azimuth Distance (km) Brightness Sun altitude
Rises 08:18:24 0° 324° (NW) 3,269 6.7 -6.5°
Reaches altitude 10° 08:20:49 10° 324° (NW) 2,345 6.0 -6.7°
Maximum altitude 08:26:12 83° 50° (NE) 801 3.6 -7.4°
Drops below altitude 10° 08:31:39 10° 138° (SE) 2,362 6.1 -8.0°
Sets 08:34:05 0° 138° (SE) 3,295 6.8 -8.3°
